EW6519 Weather Reports


Display with metric or nautical units.
time (UTC)temp
F
wind
direction
speed
MPH
gust
MPH
rain 1hr
in
rain 24hr
in
rain mn
in
humidity
%
barometer
mb
20260902210018 96 162 1.0 9.0 0.00 0.00 0.00 50 1013.7
20260902204517 96 266 0.0 1.0 0.00 0.00 0.00 49 1013.8
20260902203015 96 256 0.0 8.0 0.00 0.00 0.00 48 1013.9
20260902201516 96 288 1.0 4.0 0.00 0.00 0.00 49 1013.9
20260902200015 96 227 2.0 7.0 0.00 0.00 0.00 48 1014.0
20260902194513 96 282 0.0 7.0 0.00 0.00 0.00 49 1014.2
20260902193010 97 212 2.0 15.0 0.00 0.00 0.00 46 1014.4
20260902191510 97 257 0.0 5.0 0.00 0.00 0.00 47 1014.7
20260902190010 97 1 0.0 9.0 0.00 0.00 0.00 46 1014.7
20260902184508 96 267 0.0 1.0 0.00 0.00 0.00 47 1014.8
20260902183007 97 224 1.0 7.0 0.00 0.00 0.00 47 1015.0
20260902181505 96 227 4.0 8.0 0.00 0.00 0.00 48 1015.0
20260902180055 95 227 1.0 9.0 0.00 0.00 0.00 49 1015.1
20260902174554 97 235 2.0 8.0 0.00 0.00 0.00 49 1015.2
20260902173051 96 244 0.0 6.0 0.00 0.00 0.00 51 1015.4
20260902171610 96 336 0.0 4.0 0.00 0.00 0.00 50 1015.5
20260902170050 96 219 3.0 11.0 0.00 0.00 0.00 50 1015.6
20260902164546 95 340 0.0 6.0 0.00 0.00 0.00 52 1015.7
20260902163044 95 309 0.0 6.0 0.00 0.00 0.00 52 1016.0
20260902161548 94 226 2.0 5.0 0.00 0.00 0.00 53 1016.0
20260902160044 94 232 2.0 7.0 0.00 0.00 0.00 54 1016.0
20260902154540 94 297 0.0 5.0 0.00 0.00 0.00 55 1016.2
20260902153038 93 224 0.0 7.0 0.00 0.00 0.00 57 1016.2
20260902151537 92 39 0.0 0.0 0.00 0.00 0.00 59 1016.4
20260902150033 91 241 0.0 0.0 0.00 0.00 0.00 60 1016.4
20260902144534 90 340 0.0 5.0 0.00 0.00 0.00 63 1016.3
20260902143026 89 240 0.0 0.0 0.00 0.00 0.00 64 1016.3
20260902141532 89 221 1.0 5.0 0.00 0.00 0.00 64 1016.3
20260902140021 87 244 0.0 1.0 0.00 0.00 0.00 67 1016.3
20260902134523 86 228 0.0 6.0 0.00 0.00 0.00 68 1016.3
20260902133020 85 255 0.0 9.0 0.00 0.00 0.00 69 1016.3
20260902131512 84 231 0.0 5.0 0.00 0.00 0.00 70 1016.4
20260902130007 83 231 0.0 3.0 0.00 0.00 0.00 74 1016.3
20260902124504 81 242 0.0 0.0 0.00 0.00 0.00 78 1016.3
20260902123003 78 189 0.0 0.0 0.00 0.00 0.00 82 1016.1
20260902121502 77 248 0.0 0.0 0.00 0.00 0.00 85 1016.1
20260902120101 76 248 0.0 0.0 0.00 0.00 0.00 86 1015.9
20260902114559 75 249 0.0 0.0 0.00 0.00 0.00 87 1015.8
20260902113104 74 248 0.0 0.0 0.00 0.00 0.00 89 1015.6
20260902111555 74 249 0.0 0.0 0.00 0.00 0.00 89 1015.5
20260902110055 74 248 0.0 0.0 0.00 0.00 0.00 89 1015.6
20260902104553 74 248 0.0 0.0 0.00 0.00 0.00 89 1015.5
20260902103051 74 248 0.0 0.0 0.00 0.00 0.00 89 1015.5
20260902101548 74 248 0.0 0.0 0.00 0.00 0.00 88 1015.4
20260902100047 75 248 0.0 0.0 0.00 0.00 0.00 88 1015.3
20260902094551 75 248 0.0 0.0 0.00 0.00 0.00 88 1015.3
20260902093042 75 248 0.0 0.0 0.00 0.00 0.00 87 1015.3
20260902091543 75 248 0.0 0.0 0.00 0.00 0.00 87 1015.2
20260902090039 76 248 0.0 0.0 0.00 0.00 0.00 86 1015.1
20260902084540 76 248 0.0 0.0 0.00 0.00 0.00 85 1014.9
20260902083035 76 248 0.0 0.0 0.00 0.00 0.00 85 1014.8
20260902081532 76 248 0.0 0.0 0.00 0.00 0.00 84 1014.7
20260902080034 77 248 0.0 0.0 0.00 0.00 0.00 84 1014.5
20260902074530 77 249 0.0 0.0 0.00 0.00 0.00 83 1014.5
20260902073027 77 248 0.0 0.0 0.00 0.00 0.00 82 1014.5
20260902071526 78 248 0.0 0.0 0.00 0.00 0.00 82 1014.5
20260902070024 78 249 0.0 0.0 0.00 0.00 0.00 82 1014.6
20260902064526 78 248 0.0 0.0 0.00 0.00 0.00 81 1014.4
20260902063036 78 249 0.0 0.0 0.00 0.00 0.00 80 1014.6
20260902061520 79 249 0.0 0.0 0.00 0.00 0.00 79 1014.6
20260902060016 79 249 0.0 0.0 0.00 0.00 0.00 78 1014.6
20260902054518 80 249 0.0 0.0 0.00 0.00 0.00 77 1014.6
20260902053015 80 174 0.0 0.0 0.00 0.00 0.00 77 1014.7
20260902051518 80 174 0.0 0.0 0.00 0.00 0.00 77 1014.7
20260902050015 80 174 0.0 0.0 0.00 0.00 0.00 77 1014.7
20260902044515 80 174 0.0 0.0 0.00 0.00 0.00 76 1014.6
20260902043010 81 174 0.0 0.0 0.00 0.00 0.00 76 1014.7
20260902041507 81 174 0.0 0.0 0.00 0.00 0.00 75 1014.7
20260902040009 81 174 0.0 0.0 0.00 0.00 0.00 74 1014.7
20260902034504 82 174 0.0 0.0 0.00 0.00 0.00 74 1014.7
20260902033006 82 138 0.0 0.0 0.00 0.00 0.00 73 1014.7
20260902031504 82 138 0.0 0.0 0.00 0.00 0.00 73 1014.7
20260902030100 83 155 0.0 0.0 0.00 0.00 0.00 73 1014.6
20260902024600 83 167 0.0 0.0 0.00 0.00 0.00 73 1014.7
20260902023102 83 158 0.0 0.0 0.00 0.00 0.00 72 1014.8
20260902021601 84 158 0.0 0.0 0.00 0.00 0.00 72 1014.8
20260902020057 84 158 0.0 0.0 0.00 0.00 0.00 70 1014.7
20260902014558 85 158 0.0 0.0 0.00 0.00 0.00 69 1014.6
20260902013058 85 158 0.0 0.0 0.00 0.00 0.00 68 1014.5
20260902011502 86 175 0.0 0.0 0.00 0.00 0.00 66 1014.4
20260902010101 86 164 0.0 0.0 0.00 0.00 0.00 65 1014.2
20260902004602 87 233 0.0 0.0 0.00 0.00 0.00 63 1014.1
20260902003133 88 169 0.0 0.0 0.00 0.00 0.00 62 1014.2
20260902001600 89 150 0.0 0.0 0.00 0.00 0.00 60 1014.2
20260902000101 89 173 0.0 0.0 0.00 0.00 0.00 59 1014.3
20260901234558 90 214 0.0 0.0 0.00 0.00 0.00 59 1014.3
20260901233057 91 143 0.0 3.0 0.00 0.00 0.00 58 1014.4
20260901231602 92 233 0.0 5.0 0.00 0.00 0.00 57 1014.4
20260901230056 92 191 0.0 6.0 0.00 0.00 0.00 56 1014.3
20260901224555 93 179 0.0 6.0 0.00 0.00 0.00 56 1014.3
20260901223054 93 212 3.0 8.0 0.00 0.00 0.00 55 1014.2
20260901221556 94 251 0.0 6.0 0.00 0.00 0.00 53 1014.1
20260901220052 95 124 1.0 7.0 0.00 0.00 0.00 51 1014.1
20260901214552 96 120 0.0 2.0 0.00 0.00 0.00 50 1014.1
20260901213051 97 144 0.0 7.0 0.00 0.00 0.00 49 1014.1
20260901211549 97 169 4.0 8.0 0.00 0.00 0.00 48 1014.2